Location: Qazi Observatory
(41.6337°N, 88.1517°W)
Time: 07:13:36
(UTC-05:00)

Amateur Radio Satellites - All Passes

Search period start: 28 March 2015 06:43
Search period end: 29 March 2015 06:43
Location: Qazi Observatory, 41.6337°N, 88.1517°W

Satellite Date Start Highest point End Downlink Frequencies (MHz)
Time Altitude Azimuth
CUSAT 1 28 Mar 07:03:33 07:05:42 14° 72° (ENE) 07:08:22 437.405
VERMONT LUNAR 28 Mar 07:06:33 07:09:47 46° 164° (SSE) 07:13:01 437.305
RS-15 28 Mar 07:08:12 07:16:39 23° 257° (WSW) 07:24:39 29.354- 29.394
PHONESAT 2.4 28 Mar 07:34:42 07:38:00 38° 161° (SSE) 07:41:19 2401.200-2431.200
DANDE 28 Mar 07:42:49 07:46:01 24° 76° (ENE) 07:50:05 436.750
PRISM 28 Mar 07:56:48 07:59:03 14° 270° (W) 08:01:06 437.425
CUBESAT XI-V 28 Mar 08:08:17 08:09:52 11° 273° (W) 08:11:10 437.345
GONETS M04 28 Mar 08:14:11 08:22:21 43° 272° (W) 08:30:24
HO-68 28 Mar 08:14:48 08:18:42 16° 87° (E) 08:23:01 435.675
STRAND 1 28 Mar 08:18:33 08:22:07 18° 270° (W) 08:25:30 437.568
Cubesat XI-IV 28 Mar 08:22:32 08:27:07 29° 294° (WNW) 08:31:33 437.490
CUTE-I 28 Mar 08:22:48 08:27:21 29° 294° (WNW) 08:31:48 437.470
BRITE-PL 28 Mar 08:26:58 08:30:00 20° 93° (E) 08:33:14 437.365/2234.400
CUTE 1.7 + AOD 2 28 Mar 08:33:39 08:35:29 13° 88° (E) 08:37:33 437.475
VERMONT LUNAR 28 Mar 08:44:01 08:47:22 75° 182° (S) 08:50:45 437.305
CUSAT 1 28 Mar 08:44:28 08:48:30 54° 262° (W) 08:53:55 437.405
AAUSAT CUBESAT 2 28 Mar 09:03:02 09:05:36 16° 91° (E) 09:08:18 437.432
SEEDS 28 Mar 09:03:46 09:07:11 23° 93° (E) 09:10:39 437.485
CINEMA 3 28 Mar 09:07:13 09:09:08 13° 89° (E) 09:11:18 145.822/145.860
PHONESAT 2.4 28 Mar 09:12:39 09:16:11 74° 176° (S) 09:19:43 2401.200-2431.200
DOVE 4 28 Mar 09:15:51 09:19:37 30° 96° (E) 09:23:37 437.250
Oscar 11 28 Mar 09:19:00 09:20:12 11° 88° (E) 09:21:40 145.826/435.025
GOMX 1 28 Mar 09:20:09 09:24:17 49° 99° (E) 09:28:37 467.674
ANTELSAT 28 Mar 09:22:29 09:24:11 12° 63° (ENE) 09:26:05 437.575/2403.000
DANDE 28 Mar 09:25:51 09:29:15 26° 263° (W) 09:33:26 436.750
COMPASS 1 28 Mar 09:28:00 09:31:55 35° 97° (E) 09:35:49 437.405
CUBEBUG 2 28 Mar 09:28:55 09:30:28 12° 88° (E) 09:32:17 437.445
QB50P2 28 Mar 09:51:16 09:53:15 13° 64° (ENE) 09:55:24 145.880/145.840
CANX-2 28 Mar 09:53:23 09:57:42 74° 284° (WNW) 10:02:00 2200.000
HO-68 28 Mar 10:00:15 10:07:31 90° 207° (SSW) 10:14:43 435.675
BRITE-PL 28 Mar 10:04:55 10:08:42 33° 288° (WNW) 10:12:34 437.365/2234.400
CUTE 1.7 + AOD 2 28 Mar 10:07:36 10:11:51 56° 285° (WNW) 10:16:03 437.475
UNISAT 6 28 Mar 10:15:57 10:20:00 45° 72° (ENE) 10:24:09 437.425
BEESAT 3 28 Mar 10:17:47 10:21:18 29° 115° (ESE) 10:24:56 437.485
POPSAT HIP 1 28 Mar 10:18:44 10:22:11 25° 69° (ENE) 10:25:41 437.405
VERMONT LUNAR 28 Mar 10:21:45 10:24:57 42° 197° (SSW) 10:28:10 437.305
UKube-1 28 Mar 10:23:16 10:26:31 21° 93° (E) 10:29:51 .
DELFI C3 28 Mar 10:25:16 10:29:15 47° 99° (E) 10:33:12 145.870
BUGSAT 1 28 Mar 10:25:33 10:28:41 22° 68° (ENE) 10:31:54 437.445
TIGRISAT 28 Mar 10:26:44 10:30:53 57° 74° (ENE) 10:35:07 435.000
NANOSAT C BR1 28 Mar 10:29:34 10:33:19 32° 71° (ENE) 10:37:07 145.865
DX 1 28 Mar 10:31:20 10:35:01 27° 95° (E) 10:38:44 434.975-435.025
POLYITAN 1 28 Mar 10:32:28 10:36:18 36° 71° (ENE) 10:40:11 437.675
AAUSAT CUBESAT 2 28 Mar 10:37:27 10:41:29 43° 288° (WNW) 10:45:30 437.432
HUMSAT D 28 Mar 10:39:02 10:42:21 23° 94° (E) 10:45:47 437.325/437.525
SEEDS 28 Mar 10:39:14 10:43:02 30° 290° (WNW) 10:46:46 437.485
CINEMA 3 28 Mar 10:42:26 10:46:45 59° 286° (WNW) 10:51:13 145.822/145.860
AIST 2 28 Mar 10:44:09 10:46:51 17° 111° (ESE) 10:49:43 435.215
PHONESAT 2.4 28 Mar 10:50:58 10:54:26 53° 194° (SSW) 10:57:54 2401.200-2431.200
Oscar 11 28 Mar 10:52:34 10:56:55 66° 285° (WNW) 11:01:14 145.826/435.025
DOVE 4 28 Mar 10:53:50 10:57:21 24° 291° (WNW) 11:00:53 437.250
ANTELSAT 28 Mar 10:56:16 11:00:30 64° 260° (W) 11:04:48 437.575/2403.000
GOMX 1 28 Mar 10:59:38 11:02:09 15° 294° (WNW) 11:04:34 467.674
FUNcube-1 28 Mar 11:00:16 11:04:39 78° 102° (ESE) 11:09:06 145.935
UWE-3 28 Mar 11:01:00 11:05:25 82° 281° (W) 11:09:56 435.000/436.395/437.385
CUBEBUG 2 28 Mar 11:03:16 11:07:38 65° 285° (WNW) 11:12:07 437.445
COMPASS 1 28 Mar 11:04:12 11:07:25 21° 292° (WNW) 11:10:32 437.405
VELOX 1 28 Mar 11:05:53 11:09:40 28° 95° (E) 11:13:29 145.980
AISAT 28 Mar 11:09:51 11:13:48 31° 96° (E) 11:17:45 437.250
QB50P1 28 Mar 11:10:07 11:14:21 86° 257° (WSW) 11:18:35 145.935-145.965
CUBEBUG 1 28 Mar 11:11:00 11:13:15 14° 90° (E) 11:15:42 437.445
ZACube-1 28 Mar 11:12:39 11:17:01 76° 283° (WNW) 11:21:28 437.345
DUCHIFAT 1 28 Mar 11:12:46 11:16:59 82° 258° (WSW) 11:21:13 145.980
BEESAT 2 28 Mar 11:16:21 11:20:29 78° 303° (WNW) 11:24:40 435.950
QB50P2 28 Mar 11:24:35 11:28:44 57° 260° (W) 11:32:56 145.880/145.840
ESTCUBE 1 28 Mar 11:34:57 11:38:56 30° 96° (E) 11:42:55 437.505/2401.250
50 SAT 28 Mar 11:39:49 11:43:51 73° 101° (ESE) 11:47:54 437.505
HO-68 28 Mar 11:49:33 11:54:24 19° 304° (NW) 11:58:58 435.675
POPSAT HIP 1 28 Mar 11:54:21 11:58:00 27° 265° (W) 12:01:37 437.405
UNISAT 6 28 Mar 11:54:28 11:57:08 16° 270° (W) 11:59:38 437.425
BEESAT 3 28 Mar 11:55:45 11:59:21 28° 312° (NW) 12:02:58 437.485
UKube-1 28 Mar 11:58:50 12:02:47 34° 290° (WNW) 12:06:40 .
BUGSAT 1 28 Mar 12:00:15 12:04:02 32° 263° (W) 12:07:44 437.445
VERMONT LUNAR 28 Mar 12:00:45 12:02:11 12° 212° (SSW) 12:03:34 437.305
DELFI C3 28 Mar 12:01:39 12:04:04 15° 294° (WNW) 12:06:21 145.870
NANOSAT C BR1 28 Mar 12:06:00 12:09:17 21° 267° (W) 12:12:27 145.865
TIGRISAT 28 Mar 12:06:22 12:08:09 12° 272° (W) 12:09:43 435.000
DX 1 28 Mar 12:07:33 12:11:14 27° 292° (WNW) 12:14:51 434.975-435.025
POLYITAN 1 28 Mar 12:09:17 12:12:23 19° 268° (W) 12:15:22 437.675
HUMSAT D 28 Mar 12:14:24 12:18:11 31° 289° (WNW) 12:21:56 437.325/437.525
AIST 2 28 Mar 12:20:58 12:25:07 49° 307° (NW) 12:29:19 435.215
PHONESAT 2.4 28 Mar 12:29:54 12:32:23 18° 209° (SSW) 12:34:49 2401.200-2431.200
FUNcube-1 28 Mar 12:39:14 12:40:28 11° 297° (WNW) 12:41:30 145.935
VELOX 1 28 Mar 12:42:27 12:46:12 27° 291° (WNW) 12:49:53 145.980
CUBEBUG 1 28 Mar 12:45:48 12:50:01 50° 287° (WNW) 12:54:11 437.445
AISAT 28 Mar 12:46:43 12:50:17 24° 292° (WNW) 12:53:48 437.250
TISAT 1 28 Mar 12:53:56 12:57:55 41° 98° (E) 13:01:55 437.305
BEESAT 2 28 Mar 12:57:48 12:59:24 12° 324° (NW) 13:00:52 435.950
SPROUT 28 Mar 12:59:36 13:03:50 59° 100° (E) 13:08:04 437.525
YUBILEINY 28 Mar 13:05:53 13:13:09 32° 85° (E) 13:20:42 435.215
SWISSCUBE 28 Mar 13:08:39 13:09:06 10° 86° (E) 13:09:54 437.505
Oscar 19 28 Mar 13:08:59 13:13:55 53° 72° (ENE) 13:18:56 437.125/150
ESTCUBE 1 28 Mar 13:11:56 13:15:44 26° 292° (WNW) 13:19:26 437.505/2401.250
BEESAT 28 Mar 13:11:58 13:12:17 10° 86° (E) 13:12:57 436.000
Gurwin Techsat 1B 28 Mar 13:16:17 13:19:41 18° 63° (ENE) 13:23:16 435.225
O/OREOS (USA 219) 28 Mar 13:40:00 13:44:00 29° 59° (ENE) 13:47:59 437.305
ITUPSAT 1 28 Mar 13:54:53 13:59:02 29° 95° (E) 14:03:15 437.325
AO-7 28 Mar 14:00:10 14:05:13 19° 50° (NE) 14:10:37 29.400- 29.500
ITAMSAT 1 28 Mar 14:11:36 14:16:47 69° 74° (ENE) 14:22:00 435.822/435.867
PCSat 28 Mar 14:28:13 14:32:42 28° 109° (ESE) 14:37:18 145.827
TISAT 1 28 Mar 14:30:37 14:33:27 17° 294° (WNW) 14:36:09 437.305
SPROUT 28 Mar 14:37:21 14:39:30 13° 296° (WNW) 14:41:28 437.525
SWISSCUBE 28 Mar 14:42:53 14:47:42 82° 285° (WNW) 14:52:28 437.505
BEESAT 28 Mar 14:46:03 14:50:52 83° 285° (WNW) 14:55:39 436.000
HORYU 2 28 Mar 14:47:37 14:51:16 26° 68° (ENE) 14:55:01 437.375
Oscar 19 28 Mar 14:50:07 14:53:41 18° 270° (W) 14:57:05 437.125/150
Gurwin Techsat 1B 28 Mar 14:53:56 14:59:12 64° 259° (WSW) 15:04:31 435.225
YUBILEINY 28 Mar 15:00:55 15:09:35 57° 284° (WNW) 15:18:15 435.215
JAS-2 28 Mar 15:06:59 15:12:46 30° 62° (ENE) 15:19:10 435.910
KKS-1 28 Mar 15:12:35 15:16:40 35° 97° (E) 15:20:47 437.445
O/OREOS (USA 219) 28 Mar 15:19:28 15:23:23 28° 256° (WSW) 15:27:10 437.305
AIST 1 28 Mar 15:20:34 15:24:43 45° 78° (ENE) 15:28:51
ITUPSAT 1 28 Mar 15:32:44 15:36:56 30° 292° (WNW) 15:41:02 437.325
STARS 28 Mar 15:47:02 15:51:21 54° 100° (E) 15:55:41 437.465
AO-7 28 Mar 15:48:36 15:56:52 77° 69° (ENE) 16:05:11 29.400- 29.500
ITAMSAT 1 28 Mar 15:53:54 15:56:53 15° 271° (W) 15:59:36 435.822/435.867
PCSat 28 Mar 16:10:47 16:15:56 43° 307° (NW) 16:21:07 145.827
HORYU 2 28 Mar 16:23:58 16:27:51 29° 264° (W) 16:31:43 437.375
MOZHAYETS 4 28 Mar 16:40:27 16:43:41 19° 91° (E) 16:47:03
KKS-1 28 Mar 16:49:40 16:53:08 22° 293° (WNW) 16:56:31 437.445
JAS-2 28 Mar 16:50:37 16:57:19 59° 261° (W) 17:04:48 435.910
AIST 1 28 Mar 16:59:34 17:02:01 15° 274° (W) 17:04:17
YUBILEINY 28 Mar 17:06:25 17:08:59 11° 309° (NW) 17:10:52 435.215
RS-15 28 Mar 17:16:06 17:17:36 11° 97° (E) 17:20:17 29.354- 29.394
STARS 28 Mar 17:24:49 17:27:26 15° 296° (WNW) 17:29:55 437.465
AO-7 28 Mar 17:44:14 17:50:36 23° 269° (W) 17:56:37 29.400- 29.500
AUBIESAT-1 28 Mar 17:59:30 18:04:01 38° 102° (ESE) 18:08:27 437.475
BEESAT 2 28 Mar 18:00:08 18:00:54 10° 35° (NE) 18:01:50 435.950
Cubesat XI-IV 28 Mar 18:04:17 18:09:34 64° 73° (ENE) 18:14:55 437.490
CUTE-I 28 Mar 18:04:24 18:09:41 63° 73° (ENE) 18:15:01 437.470
MOZHAYETS 4 28 Mar 18:16:44 18:21:11 43° 288° (WNW) 18:25:33
M-CUBED/EXP-1 PRIME 28 Mar 18:22:52 18:27:45 74° 107° (ESE) 18:32:31 437.505
CUBESAT XI-V 28 Mar 18:24:48 18:27:55 18° 91° (E) 18:31:11 437.345
BEESAT 3 28 Mar 18:36:34 18:39:50 22° 45° (NE) 18:43:06 437.485
HO-68 28 Mar 18:45:38 18:48:56 14° 52° (NE) 18:52:36 435.675
STRAND 1 28 Mar 18:48:56 18:52:18 18° 90° (E) 18:55:49 437.568
AIST 2 28 Mar 19:05:05 19:07:42 16° 40° (NE) 19:10:23 435.215
RS-15 28 Mar 19:17:21 19:27:55 62° 115° (ESE) 19:38:44 29.354- 29.394
GONETS M04 28 Mar 19:18:25 19:26:34 49° 89° (E) 19:34:52
CUTE 1.7 + AOD 2 28 Mar 19:28:50 19:29:17 10° 63° (ENE) 19:29:58 437.475
SO-50 28 Mar 19:29:51 19:34:27 78° 121° (ESE) 19:39:15 436.795
AUBIESAT-1 28 Mar 19:34:35 19:38:38 26° 298° (WNW) 19:42:34 437.475
BEESAT 2 28 Mar 19:35:47 19:39:55 68° 55° (NE) 19:43:59 435.950
PRISM 28 Mar 19:36:49 19:41:01 84° 102° (ESE) 19:45:10 437.425
BRITE-PL 28 Mar 19:38:07 19:41:58 26° 70° (ENE) 19:45:42 437.365/2234.400
Cubesat XI-IV 28 Mar 19:46:45 19:50:13 17° 271° (W) 19:53:28 437.490
CUTE-I 28 Mar 19:46:48 19:50:18 17° 271° (W) 19:53:33 437.470
AAUSAT CUBESAT 2 28 Mar 19:55:38 19:57:11 12° 64° (ENE) 19:58:55 437.432
SEEDS 28 Mar 19:56:55 19:59:40 18° 67° (ENE) 20:02:34 437.485
M-CUBED/EXP-1 PRIME 28 Mar 19:59:11 20:02:05 15° 302° (WNW) 20:04:47 437.505
CUBESAT XI-V 28 Mar 20:01:13 20:05:40 44° 288° (WNW) 20:10:01 437.345
CINEMA 3 28 Mar 20:10:37 20:12:06 12° 64° (ENE) 20:13:46 145.822/145.860
BEESAT 3 28 Mar 20:14:11 20:18:03 39° 243° (WSW) 20:21:50 437.485
COMPASS 1 28 Mar 20:19:58 20:23:22 25° 69° (ENE) 20:26:52 437.405
DOVE 4 28 Mar 20:22:13 20:26:02 31° 71° (ENE) 20:29:46 437.250
STRAND 1 28 Mar 20:26:55 20:31:55 54° 288° (WNW) 20:36:51 437.568
HO-68 28 Mar 20:28:26 20:35:32 70° 71° (ENE) 20:42:42 435.675
GOMX 1 28 Mar 20:28:43 20:33:08 56° 74° (ENE) 20:37:20 467.674
AIST 2 28 Mar 20:42:34 20:46:49 71° 239° (WSW) 20:50:58 435.215
CANX-2 28 Mar 20:46:19 20:50:33 81° 76° (ENE) 20:54:50 2200.000
DANDE 28 Mar 20:58:16 21:00:45 22° 97° (E) 21:03:00 436.750
CUTE 1.7 + AOD 2 28 Mar 21:00:24 21:04:38 78° 258° (WSW) 21:08:55 437.475
SO-50 28 Mar 21:12:24 21:15:38 18° 322° (NW) 21:18:51 436.795
DELFI C3 28 Mar 21:13:28 21:17:01 30° 70° (ENE) 21:20:39 145.870
GONETS M04 28 Mar 21:15:42 21:23:40 38° 290° (WNW) 21:31:35
BEESAT 2 28 Mar 21:16:11 21:17:34 11° 251° (WSW) 21:18:45 435.950
BRITE-PL 28 Mar 21:16:14 21:20:29 30° 264° (W) 21:24:24 437.365/2234.400
UKube-1 28 Mar 21:18:49 21:21:54 20° 66° (ENE) 21:25:07 .
DX 1 28 Mar 21:27:23 21:30:57 25° 68° (ENE) 21:34:35 434.975-435.025
AAUSAT CUBESAT 2 28 Mar 21:28:12 21:32:21 63° 259° (W) 21:36:31 437.432
RS-15 28 Mar 21:30:33 21:40:52 44° 320° (NW) 21:51:21 29.354- 29.394
SEEDS 28 Mar 21:31:14 21:35:12 41° 262° (W) 21:39:14 437.485
HUMSAT D 28 Mar 21:32:09 21:34:43 17° 66° (ENE) 21:37:26 437.325/437.525
CINEMA 3 28 Mar 21:44:44 21:48:54 61° 259° (W) 21:53:01 145.822/145.860
Oscar 11 28 Mar 21:47:16 21:51:34 84° 255° (WSW) 21:55:56 145.826/435.025
COMPASS 1 28 Mar 21:55:24 21:59:01 27° 265° (W) 22:02:36 437.405
FUNcube-1 28 Mar 21:56:28 22:00:32 60° 74° (ENE) 22:04:39 145.935
CUSAT 1 28 Mar 21:56:41 21:59:08 25° 284° (WNW) 22:01:23 437.405
UWE-3 28 Mar 21:58:33 22:02:43 82° 77° (ENE) 22:06:53 435.000/436.395/437.385
DOVE 4 28 Mar 22:00:26 22:03:54 22° 266° (W) 22:07:10 437.250
CUBEBUG 2 28 Mar 22:01:57 22:06:06 74° 258° (WSW) 22:10:16 437.445
VELOX 1 28 Mar 22:04:00 22:07:41 27° 68° (ENE) 22:11:28 145.980
CUBEBUG 1 28 Mar 22:08:06 22:10:16 14° 64° (ENE) 22:12:38 437.445
AISAT 28 Mar 22:08:08 22:11:59 30° 70° (ENE) 22:15:55 437.250
ZACube-1 28 Mar 22:08:57 22:13:06 87° 78° (ENE) 22:17:17 437.345
GOMX 1 28 Mar 22:09:28 22:11:40 13° 270° (W) 22:13:36 467.674
HO-68 28 Mar 22:18:28 22:23:57 22° 270° (W) 22:29:12 435.675
TIGRISAT 28 Mar 22:19:52 22:21:44 13° 89° (E) 22:23:53 435.000
50 SAT 28 Mar 22:26:12 22:29:54 42° 73° (ENE) 22:33:39 437.505
ESTCUBE 1 28 Mar 22:34:56 22:38:51 30° 69° (ENE) 22:42:50 437.505/2401.250
ANTELSAT 28 Mar 22:48:12 22:52:02 26° 94° (E) 22:55:59 437.575/2403.000
DELFI C3 28 Mar 22:49:06 22:52:16 21° 267° (W) 22:55:22 145.870
UKube-1 28 Mar 22:53:45 22:57:50 38° 262° (W) 23:01:54 .
QB50P1 28 Mar 22:56:31 22:58:55 15° 91° (E) 23:01:28 145.935-145.965
ISS 28 Mar 22:57:56 23:00:57 36° 138° (SE) 23:04:00 145.825
DUCHIFAT 1 28 Mar 22:58:46 23:01:14 16° 91° (E) 23:03:52 145.980
DX 1 28 Mar 23:03:16 23:07:07 29° 264° (W) 23:10:56 434.975-435.025
HUMSAT D 28 Mar 23:06:21 23:10:13 40° 262° (W) 23:14:07 437.325/437.525
QB50P2 28 Mar 23:10:23 23:13:40 22° 94° (E) 23:17:02 145.880/145.840
PCSat 28 Mar 23:15:19 23:19:49 26° 47° (NE) 23:24:23 145.827
YUBILEINY 28 Mar 23:16:11 23:20:42 15° 56° (NE) 23:25:45 435.215
FUNcube-1 28 Mar 23:36:16 23:37:24 11° 272° (W) 23:38:16 145.935
POPSAT HIP 1 28 Mar 23:38:47 23:42:50 44° 99° (E) 23:46:54 437.405
VELOX 1 28 Mar 23:40:19 23:44:13 29° 265° (W) 23:48:03 145.980
CUBEBUG 1 28 Mar 23:41:50 23:46:13 60° 259° (W) 23:50:34 437.445
BUGSAT 1 28 Mar 23:42:11 23:45:50 33° 97° (E) 23:49:30 437.445
UNISAT 6 28 Mar 23:43:48 23:48:24 81° 282° (WNW) 23:53:02 437.425
AISAT 28 Mar 23:44:54 23:48:38 25° 266° (W) 23:52:16 437.250
TISAT 1 28 Mar 23:46:34 23:50:19 32° 71° (ENE) 23:54:08 437.305
RS-15 28 Mar 23:49:08 23:57:16 22° 352° (N) 00:05:31 29.354- 29.394
NANOSAT C BR1 28 Mar 23:49:37 23:53:48 59° 101° (E) 23:57:59 145.865
POLYITAN 1 28 Mar 23:53:09 23:57:23 67° 101° (ESE) 00:01:37 437.675
SPROUT 28 Mar 23:53:56 23:58:02 46° 73° (ENE) 00:02:10 437.525
TIGRISAT 28 Mar 23:54:28 23:58:59 65° 285° (WNW) 00:03:35 435.000
50 SAT 29 Mar 00:02:58 00:05:07 14° 270° (W) 00:07:06 437.505
ESTCUBE 1 29 Mar 00:11:49 00:15:44 27° 266° (W) 00:19:35 437.505/2401.250
SWISSCUBE 29 Mar 00:14:37 00:17:00 14° 62° (ENE) 00:19:35 437.505
BEESAT 29 Mar 00:17:46 00:20:05 14° 62° (ENE) 00:22:38 436.000
ANTELSAT 29 Mar 00:24:47 00:28:51 31° 290° (WNW) 00:32:54 437.575/2403.000
QB50P1 29 Mar 00:31:02 00:35:06 45° 288° (WNW) 00:39:08 145.935-145.965
DUCHIFAT 1 29 Mar 00:33:20 00:37:21 44° 288° (WNW) 00:41:21 145.980
ISS 29 Mar 00:34:26 00:37:24 31° 335° (NNW) 00:40:21 145.825
QB50P2 29 Mar 00:45:52 00:49:38 31° 290° (WNW) 00:53:22 145.880/145.840
PCSat 29 Mar 00:58:17 01:03:32 50° 246° (WSW) 01:08:44 145.827
ITUPSAT 1 29 Mar 01:01:53 01:06:14 35° 69° (ENE) 01:10:39 437.325
YUBILEINY 29 Mar 01:10:39 01:19:31 74° 80° (E) 01:28:17 435.215
POPSAT HIP 1 29 Mar 01:15:40 01:18:25 17° 294° (WNW) 01:21:03 437.405
BUGSAT 1 29 Mar 01:18:11 01:21:09 19° 293° (WNW) 01:24:00 437.445
Oscar 19 29 Mar 01:21:15 01:24:44 19° 91° (E) 01:28:24 437.125/150
TISAT 1 29 Mar 01:22:57 01:26:13 21° 267° (W) 01:29:24 437.305
NANOSAT C BR1 29 Mar 01:27:12 01:29:15 13° 296° (WNW) 01:31:05 145.865
POLYITAN 1 29 Mar 01:31:11 01:32:50 12° 297° (WNW) 01:34:17 437.675
SPROUT 29 Mar 01:31:47 01:34:26 15° 270° (W) 01:36:55 437.525
SWISSCUBE 29 Mar 01:49:33 01:54:21 71° 258° (WSW) 01:59:11 437.505
BEESAT 29 Mar 01:52:38 01:57:25 71° 258° (WSW) 02:02:14 436.000
RS-15 29 Mar 02:05:13 02:14:39 30° 27° (NNE) 02:24:38 29.354- 29.394
KKS-1 29 Mar 02:11:06 02:15:04 34° 70° (ENE) 02:19:05 437.445
ISS 29 Mar 02:12:38 02:14:33 14° 355° (N) 02:16:28 145.825
SO-50 29 Mar 02:22:01 02:24:39 14° 35° (NE) 02:27:25 436.795
ITAMSAT 1 29 Mar 02:24:59 02:29:03 24° 93° (E) 02:33:13 435.822/435.867
ITUPSAT 1 29 Mar 02:40:13 02:44:13 25° 266° (W) 02:48:09 437.325
STARS 29 Mar 02:44:11 02:48:23 48° 72° (ENE) 02:52:38 437.465
Oscar 19 29 Mar 02:59:26 03:04:28 53° 288° (WNW) 03:09:30 437.125/150
YUBILEINY 29 Mar 03:08:54 03:15:33 24° 278° (W) 03:21:48 435.215
Gurwin Techsat 1B 29 Mar 03:09:57 03:15:07 51° 99° (E) 03:20:17 435.225
M-CUBED/EXP-1 PRIME 29 Mar 03:40:42 03:41:40 11° 55° (NE) 03:42:51 437.505
MOZHAYETS 4 29 Mar 03:42:59 03:46:12 19° 66° (ENE) 03:49:33
KKS-1 29 Mar 03:48:16 03:51:48 22° 267° (W) 03:55:16 437.445
ISS 29 Mar 03:49:31 03:51:53 18° 15° (NNE) 03:54:16 145.825
AIST 1 29 Mar 03:50:33 03:54:14 27° 90° (E) 03:58:01
AO-7 29 Mar 03:50:58 03:57:14 24° 91° (E) 04:03:48 29.400- 29.500
O/OREOS (USA 219) 29 Mar 03:52:24 03:56:26 32° 105° (ESE) 04:00:33 437.305
JAS-2 29 Mar 04:00:55 04:07:03 26° 88° (E) 04:13:00 435.910
SO-50 29 Mar 04:01:09 04:06:07 74° 55° (NE) 04:11:03 436.795
ITAMSAT 1 29 Mar 04:03:53 04:08:46 42° 290° (WNW) 04:13:36 435.822/435.867
HORYU 2 29 Mar 04:14:22 04:18:47 51° 100° (E) 04:23:10 437.375
RS-15 29 Mar 04:17:50 04:29:21 77° 54° (NE) 04:41:25 29.354- 29.394
STARS 29 Mar 04:22:30 04:25:12 15° 269° (W) 04:27:42 437.465
VERMONT LUNAR 29 Mar 04:44:34 04:44:35 10° 147° (SSE) 04:44:43 437.305
AUBIESAT-1 29 Mar 04:47:57 04:51:48 46° 66° (ENE) 04:56:01 437.475
Gurwin Techsat 1B 29 Mar 04:50:45 04:54:47 22° 296° (WNW) 04:58:40 435.225
M-CUBED/EXP-1 PRIME 29 Mar 05:11:51 05:15:50 84° 251° (WSW) 05:20:14 437.505
MOZHAYETS 4 29 Mar 05:18:42 05:23:07 45° 262° (W) 05:27:36
ISS 29 Mar 05:25:29 05:28:44 73° 35° (NE) 05:31:56 145.825
AIST 1 29 Mar 05:28:11 05:31:53 25° 287° (WNW) 05:35:32
GONETS M04 29 Mar 05:28:38 05:35:21 24° 63° (ENE) 05:42:23
CUBESAT XI-V 29 Mar 05:28:39 05:31:57 20° 66° (ENE) 05:35:24 437.345
O/OREOS (USA 219) 29 Mar 05:31:57 05:35:54 27° 302° (WNW) 05:39:48 437.305
AO-7 29 Mar 05:42:35 05:50:52 73° 291° (WNW) 05:59:07 29.400- 29.500
SO-50 29 Mar 05:43:26 05:46:09 14° 251° (WSW) 05:48:38 436.795
JAS-2 29 Mar 05:45:00 05:52:44 65° 289° (WNW) 05:59:50 435.910
HORYU 2 29 Mar 05:52:09 05:55:04 17° 295° (WNW) 05:57:51 437.375
STRAND 1 29 Mar 06:04:46 06:09:02 28° 67° (ENE) 06:13:25 437.568
VERMONT LUNAR 29 Mar 06:18:38 06:21:45 37° 161° (SSE) 06:24:54 437.305
CUTE-I 29 Mar 06:22:00 06:26:14 24° 93° (E) 06:30:33 437.470
Cubesat XI-IV 29 Mar 06:22:03 06:26:18 25° 93° (E) 06:30:39 437.490
AUBIESAT-1 29 Mar 06:24:29 06:27:02 16° 266° (W) 06:29:31 437.475
PRISM 29 Mar 06:27:02 06:31:12 63° 74° (ENE) 06:35:24 437.425
